Weather History for Wharton, TX

Change the Weather History Date:

Saturday, March 9, 2013

  Actual Average (KPSX) Record (KPSX)
Temperature  
Mean Temperature 70 °F -  
Max Temperature 78 °F 71 °F 86 °F (2006)
Min Temperature 62 °F 53 °F 33 °F (1989)
Cooling Degree Days 5    
Growing Degree Days 20 (Base 50)    
Moisture  
Dew Point 62 °F    
Average Humidity 80    
Maximum Humidity 91    
Minimum Humidity 57    
Precipitation  
Precipitation 0.00 in - - ()
Sea Level Pressure  
Sea Level Pressure 29.90 in    
Wind  
Wind Speed 14 mph (SE)    
Max Wind Speed 30 mph    
Max Gust Speed 34 mph    
Visibility 10 miles    
Events      
Averages and records for this station are not official NWS values.
T = Trace of Precipitation, MM = Missing Value Source: NWS Daily Summary

Daily Weather History Graph

Daily Weather History Graph

Search for Another Location

Airport:

Trip Planner

Search our weather history database for the weather conditions in past years. The results will help you decide how hot, cold, wet, or windy it might be!

Date:

Astronomy

Mar. 09, 2013 Rise Set
Actual Time 6:40 AM CST 6:29 PM CST
Civil Twilight 6:17 AM CST 6:53 PM CST
Nautical Twilight 5:49 AM CST 7:20 PM CST
Astronomical Twilight 5:22 AM CST 7:48 PM CST
Moon 4:57 AM CST (3/9) 4:38 PM CST (3/9)
Length of Visible Light 12h 36m
Length of Day
11h 48m
Waning Crescent, 5% of the Moon is Illuminated
Mar 9
Waning Crescent
Mar 11
New
Mar 19
First Quarter
Mar 27
Full
Apr 2
Last Quarter

Hourly Weather History & Observations

Time (CST) Temp. Dew Point Humidity Pressure Visibility Wind Dir Wind Speed Gust Speed Precip Events Conditions
12:15 AM 62.8 °F 59.0 °F 87% 30.06 in 10.0 mi ESE 6.9 mph - N/A   Mostly Cloudy
12:35 AM 63.0 °F 59.0 °F 87% 30.05 in 10.0 mi ESE 6.9 mph - N/A   Scattered Clouds
12:55 AM 63.1 °F 59.2 °F 87% 30.05 in 10.0 mi ESE 8.1 mph - N/A   Clear
1:15 AM 63.5 °F 59.7 °F 87% 30.04 in 10.0 mi ESE 9.2 mph - N/A   Clear
1:35 AM 63.9 °F 59.9 °F 87% 30.03 in 10.0 mi ESE 5.8 mph - N/A   Clear
1:55 AM 64.0 °F 60.3 °F 87% 30.02 in 10.0 mi SE 10.4 mph - N/A   Clear
2:15 AM 64.4 °F 60.6 °F 88% 30.01 in 10.0 mi SE 10.4 mph - N/A   Clear
2:35 AM 64.6 °F 60.8 °F 88% 29.99 in 10.0 mi SE 10.4 mph - N/A   Clear
2:55 AM 64.9 °F 60.8 °F 86% 29.98 in 10.0 mi SE 12.7 mph - N/A   Scattered Clouds
3:15 AM 64.9 °F 60.8 °F 86% 29.98 in 10.0 mi SE 10.4 mph - N/A   Scattered Clouds
3:35 AM 65.3 °F 61.0 °F 86% 29.97 in 10.0 mi SE 10.4 mph - N/A   Clear
3:55 AM 65.3 °F 61.2 °F 86% 29.97 in 10.0 mi SSE 11.5 mph - N/A   Scattered Clouds
4:15 AM 65.5 °F 61.3 °F 86% 29.97 in 10.0 mi SSE 9.2 mph - N/A   Scattered Clouds
4:35 AM 65.3 °F 61.3 °F 87% 29.96 in 10.0 mi SE 11.5 mph - N/A   Scattered Clouds
4:55 AM 65.3 °F 61.7 °F 88% 29.97 in 10.0 mi SSE 10.4 mph - N/A   Scattered Clouds
5:15 AM 65.3 °F 61.9 °F 89% 29.96 in 10.0 mi SE 10.4 mph - N/A   Overcast
5:35 AM 65.3 °F 62.1 °F 89% 29.96 in 10.0 mi SE 10.4 mph - N/A   Mostly Cloudy
5:55 AM 65.3 °F 61.9 °F 89% 29.96 in 10.0 mi SE 8.1 mph - N/A   Mostly Cloudy
6:15 AM 64.9 °F 61.9 °F 90% 29.96 in 10.0 mi SE 8.1 mph - N/A   Scattered Clouds
6:35 AM 64.9 °F 62.1 °F 90% 29.96 in 10.0 mi SSE 8.1 mph - N/A   Scattered Clouds
6:55 AM 64.9 °F 62.2 °F 91% 29.96 in 10.0 mi SE 8.1 mph - N/A   Scattered Clouds
7:15 AM 65.3 °F 62.6 °F 91% 29.96 in 10.0 mi SE 9.2 mph - N/A   Clear
7:35 AM 65.8 °F 62.6 °F 89% 29.97 in 10.0 mi SE 10.4 mph - N/A   Clear
7:55 AM 66.7 °F 63.0 °F 88% 29.97 in 10.0 mi SE 10.4 mph - N/A   Clear
8:15 AM 69.3 °F 63.5 °F 82% 29.97 in 10.0 mi SE 13.8 mph - N/A   Clear
8:35 AM 69.8 °F 63.1 °F 79% 29.98 in 10.0 mi SSE 18.4 mph - N/A   Clear
8:55 AM 69.4 °F 63.3 °F 81% 29.98 in 10.0 mi SE 15.0 mph - N/A   Clear
9:15 AM 70.0 °F 63.5 °F 80% 29.97 in 10.0 mi SSE 18.4 mph - N/A   Scattered Clouds
9:35 AM 70.2 °F 63.5 °F 79% 29.97 in 10.0 mi SSE 18.4 mph 24.2 mph N/A   Scattered Clouds
9:55 AM 70.2 °F 63.5 °F 79% 29.98 in 10.0 mi SSE 16.1 mph 21.9 mph N/A   Mostly Cloudy
10:15 AM 71.1 °F 63.7 °F 77% 29.97 in 10.0 mi SSE 17.3 mph 25.3 mph N/A   Mostly Cloudy
10:35 AM 71.6 °F 63.5 °F 76% 29.97 in 10.0 mi SSE 20.7 mph 27.6 mph N/A   Mostly Cloudy
10:55 AM 72.3 °F 63.9 °F 75% 29.97 in 10.0 mi SSE 19.6 mph 29.9 mph N/A   Mostly Cloudy
11:15 AM 72.3 °F 63.7 °F 74% 29.96 in 10.0 mi SSE 24.2 mph 29.9 mph N/A   Mostly Cloudy
11:35 AM 73.4 °F 63.9 °F 72% 29.95 in 10.0 mi SSE 20.7 mph 28.8 mph N/A   Scattered Clouds
11:55 AM 74.8 °F 63.7 °F 68% 29.94 in 10.0 mi SSE 23.0 mph 33.4 mph N/A   Mostly Cloudy
12:15 PM 76.5 °F 63.7 °F 64% 29.93 in 10.0 mi SSE 25.3 mph 32.2 mph N/A   Mostly Cloudy
12:35 PM 75.9 °F 63.3 °F 65% 29.91 in 10.0 mi SSE 24.2 mph 31.1 mph N/A   Mostly Cloudy
12:55 PM 76.6 °F 63.5 °F 64% 29.89 in 10.0 mi SSE 23.0 mph 31.1 mph N/A   Scattered Clouds
1:15 PM 78.1 °F 62.6 °F 59% 29.87 in 10.0 mi SSE 27.6 mph 34.5 mph N/A   Scattered Clouds
1:35 PM 78.4 °F 62.8 °F 58% 29.86 in 10.0 mi SSE 23.0 mph 29.9 mph N/A   Scattered Clouds
1:55 PM 78.8 °F 62.2 °F 57% 29.85 in 10.0 mi SSE 24.2 mph 32.2 mph N/A   Mostly Cloudy
2:15 PM 74.8 °F 61.9 °F 64% 29.85 in 10.0 mi SSE 27.6 mph 31.1 mph N/A   Mostly Cloudy
2:35 PM 74.5 °F 62.4 °F 66% 29.85 in 10.0 mi SSE 24.2 mph 32.2 mph N/A   Overcast
2:55 PM 73.8 °F 62.6 °F 68% 29.85 in 10.0 mi SSE 23.0 mph 33.4 mph N/A   Overcast
3:15 PM 74.3 °F 62.1 °F 65% 29.84 in 10.0 mi SSE 26.5 mph 34.5 mph N/A   Overcast
3:35 PM 73.2 °F 62.4 °F 69% 29.83 in 10.0 mi SSE 26.5 mph 32.2 mph N/A   Overcast
3:55 PM 73.4 °F 62.4 °F 68% 29.82 in 10.0 mi SSE 29.9 mph 34.5 mph N/A   Overcast
4:15 PM 72.5 °F 62.2 °F 70% 29.82 in 10.0 mi SSE 26.5 mph 31.1 mph N/A   Overcast
4:35 PM 72.0 °F 62.1 °F 71% 29.83 in 10.0 mi SSE 25.3 mph 29.9 mph N/A   Overcast
4:55 PM 71.6 °F 62.1 °F 72% 29.81 in 10.0 mi SSE 23.0 mph 28.8 mph N/A   Overcast
5:15 PM 71.2 °F 62.1 °F 73% 29.81 in 10.0 mi SSE 24.2 mph 33.4 mph N/A   Overcast
5:35 PM 71.2 °F 62.2 °F 73% 29.79 in 10.0 mi SSE 25.3 mph 31.1 mph N/A   Overcast
5:55 PM 70.3 °F 62.1 °F 75% 29.78 in 10.0 mi SSE 24.2 mph 33.4 mph N/A   Mostly Cloudy
6:15 PM 69.8 °F 62.2 °F 77% 29.80 in 10.0 mi SE 19.6 mph 26.5 mph N/A   Overcast
6:35 PM 69.4 °F 62.6 °F 79% 29.81 in 10.0 mi SSE 18.4 mph - N/A   Overcast
6:55 PM 69.1 °F 62.6 °F 80% 29.81 in 10.0 mi SE 17.3 mph 26.5 mph N/A   Overcast
7:15 PM 68.9 °F 62.8 °F 81% 29.83 in 10.0 mi SSE 16.1 mph 24.2 mph N/A   Overcast
7:35 PM 68.2 °F 62.8 °F 83% 29.82 in 10.0 mi SSE 13.8 mph - N/A   Overcast
7:55 PM 67.3 °F 62.8 °F 85% 29.81 in 10.0 mi SE 12.7 mph - N/A   Mostly Cloudy
8:15 PM 67.6 °F 63.0 °F 85% 29.81 in 10.0 mi SE 15.0 mph - N/A   Overcast
8:35 PM 67.1 °F 62.8 °F 86% 29.79 in 10.0 mi SE 17.3 mph - N/A   Overcast
8:55 PM 66.7 °F 62.8 °F 87% 29.79 in 10.0 mi SE 16.1 mph - N/A   Mostly Cloudy
9:15 PM 66.6 °F 63.0 °F 88% 29.80 in 10.0 mi SE 15.0 mph 21.9 mph N/A   Mostly Cloudy
9:35 PM 66.6 °F 63.1 °F 89% 29.79 in 10.0 mi SE 13.8 mph - N/A   Mostly Cloudy
9:55 PM 67.1 °F 63.5 °F 88% 29.77 in 10.0 mi SE 12.7 mph - N/A   Overcast
10:15 PM 67.1 °F 63.5 °F 88% 29.77 in 10.0 mi SE 16.1 mph 20.7 mph N/A   Overcast
10:35 PM 67.3 °F 63.7 °F 88% 29.76 in 10.0 mi SSE 17.3 mph - N/A   Overcast
10:55 PM 67.6 °F 64.2 °F 89% 29.75 in 7.0 mi SE 18.4 mph 24.2 mph N/A   Overcast
11:15 PM 68.4 °F 64.4 °F 87% 29.75 in 7.0 mi SE 17.3 mph 23.0 mph N/A   Overcast
11:35 PM 68.7 °F 64.6 °F 87% 29.75 in 7.0 mi SE 17.3 mph 26.5 mph N/A   Overcast
11:55 PM 69.1 °F 64.6 °F 86% 29.75 in 7.0 mi SE 20.7 mph - N/A   Overcast